EW2461 Weather Reports


time (UTC)temp
C
wind
direction
speed
KPH
gust
KPH
rain 1hr
cm
rain 24hr
cm
rain mn
cm
humidity
%
barometer
mb
20260505011640 8 249 4.8 17.7 0.00 1.02 0.25 83 1009.4
20260505010636 8 282 3.2 14.5 0.00 1.12 0.25 84 1009.3
20260505005638 8 177 3.2 14.5 0.00 1.22 0.25 84 1009.3
20260505002407 8 232 4.8 14.5 0.00 1.57 0.25 84 1008.8
20260505001334 8 263 4.8 12.9 0.00 1.68 0.25 84 1008.6
20260505000312 8 224 4.8 20.9 0.00 1.78 0.25 83 1008.5
20260504234209 8 290 4.8 17.7 0.00 1.96 0.25 83 1008.3
20260504233144 8 242 6.4 17.7 0.00 2.06 0.25 82 1007.9
20260504230949 8 248 4.8 16.1 0.00 2.24 0.25 82 1007.7
20260504225946 8 278 6.4 16.1 0.00 2.34 0.25 81 1007.4
20260504224958 8 283 4.8 16.1 0.00 2.39 0.25 81 1007.3
20260504223957 8 261 6.4 17.7 0.00 2.44 0.25 80 1007.2
20260504221833 9 237 4.8 19.3 0.00 2.49 0.25 79 1006.8
20260504220834 9 225 6.4 20.9 0.00 2.49 0.25 79 1006.7
20260504215820 9 251 6.4 20.9 0.00 2.49 0.25 78 1006.4
20260504214759 10 282 8.0 19.3 0.00 2.49 0.25 77 1006.5
20260504213738 10 270 6.4 20.9 0.00 2.49 0.25 77 1006.6
20260504211540 10 224 6.4 22.5 0.00 2.49 0.25 78 1006.6
20260504210505 10 229 3.2 16.1 0.00 2.49 0.25 79 1006.7
20260504204330 9 225 4.8 19.3 0.00 2.49 0.25 79 1007.0
20260504202240 9 254 4.8 16.1 0.00 2.49 0.25 78 1007.3
20260504201253 9 248 4.8 16.1 0.00 2.49 0.25 78 1007.1
20260504195131 10 247 8.0 27.4 0.00 2.49 0.25 77 1007.2
20260504194057 10 221 6.4 25.7 0.00 2.49 0.25 77 1007.1
20260504191847 10 248 9.7 22.5 0.00 2.57 0.25 73 1006.8
20260504190825 12 259 9.7 22.5 0.00 2.62 0.25 69 1006.6
20260504185809 12 281 9.7 20.9 0.00 2.67 0.25 69 1006.5
20260504184834 12 279 8.0 22.5 0.00 2.74 0.25 68 1006.3
20260504182655 12 264 9.7 29.0 0.00 2.90 0.25 68 1006.7
20260504180512 12 234 8.0 20.9 0.00 3.05 0.25 69 1006.6
20260504175440 12 200 9.7 20.9 0.00 3.10 0.25 68 1006.6
20260504174432 12 224 8.0 25.7 0.00 3.15 0.25 70 1006.5
20260504173417 11 250 11.3 25.7 0.00 3.17 0.25 69 1006.6
20260504172432 11 284 9.7 35.4 0.00 3.25 0.25 72 1006.7
20260504171427 11 234 9.7 35.4 0.00 3.30 0.25 71 1006.8
20260504170415 11 278 11.3 30.6 0.00 3.38 0.25 71 1007.0
20260504160155 11 257 9.7 22.5 0.00 4.09 0.25 74 1007.4
20260504150134 10 261 9.7 22.5 0.00 5.11 0.25 74 1007.8
20260504141048 10 246 8.0 22.5 0.00 5.94 0.25 76 1007.9
20260504110136 7 236 12.9 35.4 0.00 6.50 0.25 80 1006.4
20260504081630 5 283 6.4 20.9 0.00 6.60 0.25 84 1003.6
20260504070127 5 240 8.0 25.7 0.00 6.60 0.25 86 1002.6
20260504050538 5 269 12.9 37.0 0.00 6.60 0.25 93 1000.8
20260504045506 5 265 11.3 33.8 0.00 6.60 0.25 93 1000.7
20260504044513 5 225 11.3 27.4 0.00 6.60 0.25 93 1000.6
20260504043502 5 248 12.9 27.4 0.00 6.60 0.25 93 1000.5
20260504042508 5 271 12.9 35.4 0.00 6.60 0.25 93 1000.6
20260504041441 5 306 12.9 35.4 0.08 6.60 0.25 93 1000.4
20260504040448 5 319 12.9 30.6 0.13 6.60 0.25 94 1000.4
20260504035450 5 345 9.7 22.5 0.15 6.58 0.23 93 1000.2
20260504034430 5 277 9.7 25.7 0.20 6.55 0.18 93 1000.2
20260504033356 5 249 9.7 29.0 0.33 6.50 0.15 93 1000.1
20260504031241 5 10 8.0 27.4 0.28 6.40 0.05 94 999.7
20260504030245 5 271 8.0 25.7 0.28 6.35 0.00 94 999.6
20260504025214 5 252 8.0 25.7 0.33 6.30 6.30 94 999.4
20260504024157 5 327 8.0 22.5 0.38 6.25 6.25 93 999.3
20260504022001 5 255 9.7 32.2 0.41 6.10 6.10 93 999.0
20260504020959 5 280 9.7 32.2 0.46 6.02 6.02 93 998.9
20260504015951 5 13 9.7 27.4 0.48 5.94 5.94 94 998.7
20260504014951 5 261 8.0 25.7 0.46 5.87 5.89 94 998.6
20260504013928 5 284 9.7 30.6 0.56 5.79 5.82 94 998.4
20260504012908 5 329 9.7 30.6 0.64 5.71 5.71 93 998.2